Year,Month,Day,Hour,Minute,Value (Times are PST for temperature in C)
2021,06,29,00,00,29.90
2021,06,29,00,01,29.90
2021,06,29,00,02,29.90
2021,06,29,00,03,29.80
2021,06,29,00,04,29.80
2021,06,29,00,05,29.70
2021,06,29,00,06,29.60
2021,06,29,00,07,29.60
2021,06,29,00,08,29.50
2021,06,29,00,09,29.50
2021,06,29,00,10,29.40
2021,06,29,00,11,29.40
2021,06,29,00,12,29.40
2021,06,29,00,13,29.30
2021,06,29,00,14,29.30
2021,06,29,00,15,29.30
2021,06,29,00,16,29.30
2021,06,29,00,17,29.30
2021,06,29,00,18,29.20
2021,06,29,00,19,29.20
2021,06,29,00,20,29.20
2021,06,29,00,21,29.20
2021,06,29,00,22,29.20
2021,06,29,00,23,29.10
2021,06,29,00,24,29.10
2021,06,29,00,25,29.10
2021,06,29,00,26,29.10
2021,06,29,00,27,29.10
2021,06,29,00,28,29.00
2021,06,29,00,29,29.00
2021,06,29,00,30,29.00
2021,06,29,00,31,28.90
2021,06,29,00,32,28.80
2021,06,29,00,33,28.70
2021,06,29,00,34,28.60
2021,06,29,00,35,28.50
2021,06,29,00,36,28.30
2021,06,29,00,37,28.20
2021,06,29,00,38,28.10
2021,06,29,00,39,28.00
2021,06,29,00,40,27.90
2021,06,29,00,41,27.70
2021,06,29,00,42,27.60
2021,06,29,00,43,27.50
2021,06,29,00,44,27.40
2021,06,29,00,45,27.30
2021,06,29,00,46,27.20
2021,06,29,00,47,27.10
2021,06,29,00,48,27.00
2021,06,29,00,49,26.90
2021,06,29,00,50,26.80
2021,06,29,00,51,26.70
2021,06,29,00,52,26.60
2021,06,29,00,53,26.50
2021,06,29,00,54,26.40
2021,06,29,00,55,26.30
2021,06,29,00,56,26.30
2021,06,29,00,57,26.20
2021,06,29,00,58,26.20
2021,06,29,00,59,26.20
2021,06,29,01,00,26.10
2021,06,29,01,01,26.10
2021,06,29,01,02,26.10
2021,06,29,01,03,26.10
2021,06,29,01,04,26.10
2021,06,29,01,05,26.10
2021,06,29,01,06,26.10
2021,06,29,01,07,26.10
2021,06,29,01,08,26.10
2021,06,29,01,09,26.10
2021,06,29,01,10,26.10
2021,06,29,01,11,26.10
2021,06,29,01,12,26.00
2021,06,29,01,13,26.00
2021,06,29,01,14,26.00
2021,06,29,01,15,26.00
2021,06,29,01,16,26.00
2021,06,29,01,17,26.00
2021,06,29,01,18,26.00
2021,06,29,01,19,26.10
2021,06,29,01,20,26.10
2021,06,29,01,21,26.10
2021,06,29,01,22,26.10
2021,06,29,01,23,26.10
2021,06,29,01,24,26.10
2021,06,29,01,25,26.10
2021,06,29,01,26,26.10
2021,06,29,01,27,26.10
2021,06,29,01,28,26.10
2021,06,29,01,29,26.10
2021,06,29,01,30,26.10
2021,06,29,01,31,26.10
2021,06,29,01,32,26.10
2021,06,29,01,33,26.10
2021,06,29,01,34,26.10
2021,06,29,01,35,26.20
2021,06,29,01,36,26.20
2021,06,29,01,37,26.20
2021,06,29,01,38,26.20
2021,06,29,01,39,26.20
2021,06,29,01,40,26.20
2021,06,29,01,41,26.20
2021,06,29,01,42,26.20
2021,06,29,01,43,26.20
2021,06,29,01,44,26.30
2021,06,29,01,45,26.30
2021,06,29,01,46,26.30
2021,06,29,01,47,26.30
2021,06,29,01,48,26.20
2021,06,29,01,49,26.20
2021,06,29,01,50,26.10
2021,06,29,01,51,26.10
2021,06,29,01,52,26.00
2021,06,29,01,53,25.90
2021,06,29,01,54,25.90
2021,06,29,01,55,25.80
2021,06,29,01,56,25.70
2021,06,29,01,57,25.70
2021,06,29,01,58,25.60
2021,06,29,01,59,25.60
2021,06,29,02,00,25.60
2021,06,29,02,01,25.50
2021,06,29,02,02,25.50
2021,06,29,02,03,25.40
2021,06,29,02,04,25.40
2021,06,29,02,05,25.30
2021,06,29,02,06,25.30
2021,06,29,02,07,25.30
2021,06,29,02,08,25.20
2021,06,29,02,09,25.20
2021,06,29,02,10,25.20
2021,06,29,02,11,25.20
2021,06,29,02,12,25.10
2021,06,29,02,13,25.10
2021,06,29,02,14,25.10
2021,06,29,02,15,25.10
2021,06,29,02,16,25.10
2021,06,29,02,17,25.10
2021,06,29,02,18,25.10
2021,06,29,02,19,25.10
2021,06,29,02,20,25.00
2021,06,29,02,21,25.00
2021,06,29,02,22,25.00
2021,06,29,02,23,24.90
2021,06,29,02,24,24.90
2021,06,29,02,25,24.90
2021,06,29,02,26,24.90
2021,06,29,02,27,24.90
2021,06,29,02,28,24.90
2021,06,29,02,29,24.90
2021,06,29,02,30,24.90
2021,06,29,02,31,24.80
2021,06,29,02,32,24.80
2021,06,29,02,33,24.80
2021,06,29,02,34,24.80
2021,06,29,02,35,24.80
2021,06,29,02,36,24.70
2021,06,29,02,37,24.70
2021,06,29,02,38,24.70
2021,06,29,02,39,24.70
2021,06,29,02,40,24.70
2021,06,29,02,41,24.70
2021,06,29,02,42,24.70
2021,06,29,02,43,24.70
2021,06,29,02,44,24.70
2021,06,29,02,45,24.70
2021,06,29,02,46,24.70
2021,06,29,02,47,24.70
2021,06,29,02,48,24.70
2021,06,29,02,49,24.60
2021,06,29,02,50,24.60
2021,06,29,02,51,24.60
2021,06,29,02,52,24.60
2021,06,29,02,53,24.50
2021,06,29,02,54,24.50
2021,06,29,02,55,24.50
2021,06,29,02,56,24.40
2021,06,29,02,57,24.40
2021,06,29,02,58,24.40
2021,06,29,02,59,24.50
2021,06,29,03,00,24.50
2021,06,29,03,01,24.60
2021,06,29,03,02,24.60
2021,06,29,03,03,24.60
2021,06,29,03,04,24.70
2021,06,29,03,05,24.70
2021,06,29,03,06,24.70
2021,06,29,03,07,24.70
2021,06,29,03,08,24.70
2021,06,29,03,09,24.60
2021,06,29,03,10,24.60
2021,06,29,03,11,24.60
2021,06,29,03,12,24.60
2021,06,29,03,13,24.50
2021,06,29,03,14,24.50
2021,06,29,03,15,24.40
2021,06,29,03,16,24.40
2021,06,29,03,17,24.40
2021,06,29,03,18,24.40
2021,06,29,03,19,24.40
2021,06,29,03,20,24.40
2021,06,29,03,21,24.40
2021,06,29,03,22,24.40
2021,06,29,03,23,24.40
2021,06,29,03,24,24.40
2021,06,29,03,25,24.40
2021,06,29,03,26,24.40
2021,06,29,03,27,24.50
2021,06,29,03,28,24.50
2021,06,29,03,29,24.50
2021,06,29,03,30,24.50
2021,06,29,03,31,24.50
2021,06,29,03,32,24.60
2021,06,29,03,33,24.60
2021,06,29,03,34,24.60
2021,06,29,03,35,24.60
2021,06,29,03,36,24.60
2021,06,29,03,37,24.70
2021,06,29,03,38,24.70
2021,06,29,03,39,24.70
2021,06,29,03,40,24.70
2021,06,29,03,41,24.70
2021,06,29,03,42,24.70
2021,06,29,03,43,24.70
2021,06,29,03,44,24.70
2021,06,29,03,45,24.70
2021,06,29,03,46,24.70
2021,06,29,03,47,24.70
2021,06,29,03,48,24.70
2021,06,29,03,49,24.70
2021,06,29,03,50,24.70
2021,06,29,03,51,24.70
2021,06,29,03,52,24.70
2021,06,29,03,53,24.70
2021,06,29,03,54,24.70
2021,06,29,03,55,24.60
2021,06,29,03,56,24.60
2021,06,29,03,57,24.50
2021,06,29,03,58,24.50
2021,06,29,03,59,24.40
2021,06,29,04,00,24.30
2021,06,29,04,01,24.30
2021,06,29,04,02,24.20
2021,06,29,04,03,24.20
2021,06,29,04,04,24.10
2021,06,29,04,05,24.00
2021,06,29,04,06,24.00
2021,06,29,04,07,23.90
2021,06,29,04,08,23.90
2021,06,29,04,09,23.80
2021,06,29,04,10,23.80
2021,06,29,04,11,23.70
2021,06,29,04,12,23.60
2021,06,29,04,13,23.60
2021,06,29,04,14,23.60
2021,06,29,04,15,23.60
2021,06,29,04,16,23.60
2021,06,29,04,17,23.60
2021,06,29,04,18,23.60
2021,06,29,04,19,23.60
2021,06,29,04,20,23.60
2021,06,29,04,21,23.60
2021,06,29,04,22,23.60
2021,06,29,04,23,23.60
2021,06,29,04,24,23.50
2021,06,29,04,25,23.50
2021,06,29,04,26,23.50
2021,06,29,04,27,23.50
2021,06,29,04,28,23.50
2021,06,29,04,29,23.50
2021,06,29,04,30,23.50
2021,06,29,04,31,23.50
2021,06,29,04,32,23.50
2021,06,29,04,33,23.50
2021,06,29,04,34,23.40
2021,06,29,04,35,23.40
2021,06,29,04,36,23.40
2021,06,29,04,37,23.40
2021,06,29,04,38,23.40
2021,06,29,04,39,23.40
2021,06,29,04,40,23.30
2021,06,29,04,41,23.30
2021,06,29,04,42,23.30
2021,06,29,04,43,23.30
2021,06,29,04,44,23.30
2021,06,29,04,45,23.30
2021,06,29,04,46,23.30
2021,06,29,04,47,23.30
2021,06,29,04,48,23.20
2021,06,29,04,49,23.20
2021,06,29,04,50,23.20
2021,06,29,04,51,23.20
2021,06,29,04,52,23.20
2021,06,29,04,53,23.20
2021,06,29,04,54,23.20
2021,06,29,04,55,23.20
2021,06,29,04,56,23.20
2021,06,29,04,57,23.20
2021,06,29,04,58,23.20
2021,06,29,04,59,23.20
2021,06,29,05,00,23.10
2021,06,29,05,01,23.00
2021,06,29,05,02,22.60
2021,06,29,05,03,22.10
2021,06,29,05,04,21.60
2021,06,29,05,05,21.10
2021,06,29,05,06,20.50
2021,06,29,05,07,20.00
2021,06,29,05,08,19.60
2021,06,29,05,09,19.30
2021,06,29,05,10,19.00
2021,06,29,05,11,18.80
2021,06,29,05,12,18.60
2021,06,29,05,13,18.40
2021,06,29,05,14,18.30
2021,06,29,05,15,18.10
2021,06,29,05,16,18.00
2021,06,29,05,17,17.90
2021,06,29,05,18,17.70
2021,06,29,05,19,17.60
2021,06,29,05,20,17.50
2021,06,29,05,21,17.30
2021,06,29,05,22,17.10
2021,06,29,05,23,17.00
2021,06,29,05,24,16.90
2021,06,29,05,25,16.70
2021,06,29,05,26,16.60
2021,06,29,05,27,16.50
2021,06,29,05,28,16.40
2021,06,29,05,29,16.30
2021,06,29,05,30,16.20
2021,06,29,05,31,16.10
2021,06,29,05,32,16.10
2021,06,29,05,33,16.00
2021,06,29,05,34,16.00
2021,06,29,05,35,15.90
2021,06,29,05,36,15.90
2021,06,29,05,37,15.90
2021,06,29,05,38,15.80
2021,06,29,05,39,15.80
2021,06,29,05,40,15.80
2021,06,29,05,41,15.80
2021,06,29,05,42,15.80
2021,06,29,05,43,15.80
2021,06,29,05,44,15.80
2021,06,29,05,45,15.80
2021,06,29,05,46,15.80
2021,06,29,05,47,15.90
2021,06,29,05,48,15.90
2021,06,29,05,49,15.90
2021,06,29,05,50,15.90
2021,06,29,05,51,16.00
2021,06,29,05,52,16.00
2021,06,29,05,53,16.00
2021,06,29,05,54,16.10
2021,06,29,05,55,16.10
2021,06,29,05,56,16.20
2021,06,29,05,57,16.20
2021,06,29,05,58,16.20
2021,06,29,05,59,16.20
2021,06,29,06,00,16.20
2021,06,29,06,01,16.30
2021,06,29,06,02,16.30
2021,06,29,06,03,16.30
2021,06,29,06,04,16.30
2021,06,29,06,05,16.30
2021,06,29,06,06,16.30
2021,06,29,06,07,16.30
2021,06,29,06,08,16.30
2021,06,29,06,09,16.20
2021,06,29,06,10,16.20
2021,06,29,06,11,16.20
2021,06,29,06,12,16.20
2021,06,29,06,13,16.20
2021,06,29,06,14,16.20
2021,06,29,06,15,16.20
2021,06,29,06,16,16.20
2021,06,29,06,17,16.10
2021,06,29,06,18,16.10
2021,06,29,06,19,16.10
2021,06,29,06,20,16.10
2021,06,29,06,21,16.10
2021,06,29,06,22,16.00
2021,06,29,06,23,16.00
2021,06,29,06,24,16.00
2021,06,29,06,25,16.00
2021,06,29,06,26,15.90
2021,06,29,06,27,15.90
2021,06,29,06,28,15.90
2021,06,29,06,29,15.80
2021,06,29,06,30,15.70
2021,06,29,06,31,15.50
2021,06,29,06,32,15.40
2021,06,29,06,33,15.30
2021,06,29,06,34,15.20
2021,06,29,06,35,15.10
2021,06,29,06,36,15.00
2021,06,29,06,37,14.90
2021,06,29,06,38,14.90
2021,06,29,06,39,14.80
2021,06,29,06,40,14.80
2021,06,29,06,41,14.80
2021,06,29,06,42,14.70
2021,06,29,06,43,14.70
2021,06,29,06,44,14.70
2021,06,29,06,45,14.60
2021,06,29,06,46,14.60
2021,06,29,06,47,14.50
2021,06,29,06,48,14.40
2021,06,29,06,49,14.40
2021,06,29,06,50,14.30
2021,06,29,06,51,14.30
2021,06,29,06,52,14.30
2021,06,29,06,53,14.30
2021,06,29,06,54,14.20
2021,06,29,06,55,14.20
2021,06,29,06,56,14.20
2021,06,29,06,57,14.20
2021,06,29,06,58,14.10
2021,06,29,06,59,14.10
2021,06,29,07,00,14.20
2021,06,29,07,01,14.20
2021,06,29,07,02,14.20
2021,06,29,07,03,14.20
2021,06,29,07,04,14.20
2021,06,29,07,05,14.20
2021,06,29,07,06,14.20
2021,06,29,07,07,14.20
2021,06,29,07,08,14.20
2021,06,29,07,09,14.20
2021,06,29,07,10,14.20
2021,06,29,07,11,14.20
2021,06,29,07,12,14.20
2021,06,29,07,13,14.20
2021,06,29,07,14,14.20
2021,06,29,07,15,14.20
2021,06,29,07,16,14.20
2021,06,29,07,17,14.20
2021,06,29,07,18,14.20
2021,06,29,07,19,14.20
2021,06,29,07,20,14.30
2021,06,29,07,21,14.30
2021,06,29,07,22,14.30
2021,06,29,07,23,14.30
2021,06,29,07,24,14.20
2021,06,29,07,25,14.30
2021,06,29,07,26,14.30
2021,06,29,07,27,14.30
2021,06,29,07,28,14.20
2021,06,29,07,29,14.20
2021,06,29,07,30,14.20
2021,06,29,07,31,14.20
2021,06,29,07,32,14.20
2021,06,29,07,33,14.20
2021,06,29,07,34,14.20
2021,06,29,07,35,14.20
2021,06,29,07,36,14.20
2021,06,29,07,37,14.30
2021,06,29,07,38,14.30
2021,06,29,07,39,14.30
2021,06,29,07,40,14.30
2021,06,29,07,41,14.30
2021,06,29,07,42,14.30
2021,06,29,07,43,14.30
2021,06,29,07,44,14.20
2021,06,29,07,45,14.20
2021,06,29,07,46,14.20
2021,06,29,07,47,14.20
2021,06,29,07,48,14.20
2021,06,29,07,49,14.20
2021,06,29,07,50,14.20
2021,06,29,07,51,14.20
2021,06,29,07,52,14.30
2021,06,29,07,53,14.20
2021,06,29,07,54,14.20
2021,06,29,07,55,14.20
2021,06,29,07,56,14.20
2021,06,29,07,57,14.10
2021,06,29,07,58,14.10
2021,06,29,07,59,14.10
2021,06,29,08,00,14.10
2021,06,29,08,01,14.10
2021,06,29,08,02,14.10
2021,06,29,08,03,14.10
2021,06,29,08,04,14.10
2021,06,29,08,05,14.20
2021,06,29,08,06,14.20
2021,06,29,08,07,14.20
2021,06,29,08,08,14.30
2021,06,29,08,09,14.20
2021,06,29,08,10,14.20
2021,06,29,08,11,14.30
2021,06,29,08,12,14.30
2021,06,29,08,13,14.20
2021,06,29,08,14,14.20
2021,06,29,08,15,14.30
2021,06,29,08,16,14.30
2021,06,29,08,17,14.30
2021,06,29,08,18,14.30
2021,06,29,08,19,14.30
2021,06,29,08,20,14.30
2021,06,29,08,21,14.40
2021,06,29,08,22,14.40
2021,06,29,08,23,14.50
2021,06,29,08,24,14.60
2021,06,29,08,25,14.60
2021,06,29,08,26,14.60
2021,06,29,08,27,14.70
2021,06,29,08,28,14.80
2021,06,29,08,29,14.80
2021,06,29,08,30,14.90
2021,06,29,08,31,15.00
2021,06,29,08,32,15.00
2021,06,29,08,33,15.10
2021,06,29,08,34,15.10
2021,06,29,08,35,15.20
2021,06,29,08,36,15.20
2021,06,29,08,37,15.30
2021,06,29,08,38,15.40
2021,06,29,08,39,15.40
2021,06,29,08,40,15.50
2021,06,29,08,41,15.50
2021,06,29,08,42,15.60
2021,06,29,08,43,15.60
2021,06,29,08,44,15.60
2021,06,29,08,45,15.60
2021,06,29,08,46,15.60
2021,06,29,08,47,15.60
2021,06,29,08,48,15.60
2021,06,29,08,49,15.60
2021,06,29,08,50,15.70
2021,06,29,08,51,15.80
2021,06,29,08,52,15.80
2021,06,29,08,53,15.90
2021,06,29,08,54,16.00
2021,06,29,08,55,16.00
2021,06,29,08,56,16.10
2021,06,29,08,57,16.20
2021,06,29,08,58,16.30
2021,06,29,08,59,16.40
2021,06,29,09,00,16.60
2021,06,29,09,01,16.70
2021,06,29,09,02,16.90
2021,06,29,09,03,17.00
2021,06,29,09,04,17.10
2021,06,29,09,05,17.20
2021,06,29,09,06,17.30
2021,06,29,09,07,17.40
2021,06,29,09,08,17.50
2021,06,29,09,09,17.60
2021,06,29,09,10,17.70
2021,06,29,09,11,17.70
2021,06,29,09,12,17.80
2021,06,29,09,13,17.90
2021,06,29,09,14,18.10
2021,06,29,09,15,18.20
2021,06,29,09,16,18.30
2021,06,29,09,17,18.50
2021,06,29,09,18,18.70
2021,06,29,09,19,18.80
2021,06,29,09,20,19.00
2021,06,29,09,21,19.20
2021,06,29,09,22,19.30
2021,06,29,09,23,19.40
2021,06,29,09,24,19.60
2021,06,29,09,25,19.70
2021,06,29,09,26,19.70
2021,06,29,09,27,19.80
2021,06,29,09,28,19.80
2021,06,29,09,29,19.80
2021,06,29,09,30,19.80
2021,06,29,09,31,19.80
2021,06,29,09,32,19.90
2021,06,29,09,33,20.00
2021,06,29,09,34,20.00
2021,06,29,09,35,20.10
2021,06,29,09,36,20.30
2021,06,29,09,37,20.40
2021,06,29,09,38,20.50
2021,06,29,09,39,20.60
2021,06,29,09,40,20.70
2021,06,29,09,41,20.80
2021,06,29,09,42,20.90
2021,06,29,09,43,20.90
2021,06,29,09,44,21.00
2021,06,29,09,45,20.90
2021,06,29,09,46,20.80
2021,06,29,09,47,20.70
2021,06,29,09,48,20.50
2021,06,29,09,49,20.20
2021,06,29,09,50,20.00
2021,06,29,09,51,19.80
2021,06,29,09,52,19.60
2021,06,29,09,53,19.40
2021,06,29,09,54,19.20
2021,06,29,09,55,19.00
2021,06,29,09,56,18.70
2021,06,29,09,57,18.60
2021,06,29,09,58,18.40
2021,06,29,09,59,18.30
2021,06,29,10,00,18.30
2021,06,29,10,01,18.20
2021,06,29,10,02,18.20
2021,06,29,10,03,18.20
2021,06,29,10,04,18.10
2021,06,29,10,05,18.10
2021,06,29,10,06,18.10
2021,06,29,10,07,18.10
2021,06,29,10,08,18.20
2021,06,29,10,09,18.20
2021,06,29,10,10,18.20
2021,06,29,10,11,18.20
2021,06,29,10,12,18.20
2021,06,29,10,13,18.30
2021,06,29,10,14,18.30
2021,06,29,10,15,18.40
2021,06,29,10,16,18.40
2021,06,29,10,17,18.60
2021,06,29,10,18,18.60
2021,06,29,10,19,18.50
2021,06,29,10,20,18.50
2021,06,29,10,21,18.50
2021,06,29,10,22,18.40
2021,06,29,10,23,18.40
2021,06,29,10,24,18.40
2021,06,29,10,25,18.40
2021,06,29,10,26,18.40
2021,06,29,10,27,18.50
2021,06,29,10,28,18.50
2021,06,29,10,29,18.50
2021,06,29,10,30,18.40
2021,06,29,10,31,18.50
2021,06,29,10,32,18.50
2021,06,29,10,33,18.60
2021,06,29,10,34,18.70
2021,06,29,10,35,18.80
2021,06,29,10,36,18.90
2021,06,29,10,37,19.00
2021,06,29,10,38,19.10
2021,06,29,10,39,19.30
2021,06,29,10,40,19.40
2021,06,29,10,41,19.60
2021,06,29,10,42,19.70
2021,06,29,10,43,19.90
2021,06,29,10,44,20.00
2021,06,29,10,45,20.10
2021,06,29,10,46,20.30
2021,06,29,10,47,20.40
2021,06,29,10,48,20.60
2021,06,29,10,49,20.60
2021,06,29,10,50,20.60
2021,06,29,10,51,20.60
2021,06,29,10,52,20.50
2021,06,29,10,53,20.50
2021,06,29,10,54,20.50
2021,06,29,10,55,20.50
2021,06,29,10,56,20.50
2021,06,29,10,57,20.60
2021,06,29,10,58,20.70
2021,06,29,10,59,20.80
2021,06,29,11,00,20.80
2021,06,29,11,01,20.90
2021,06,29,11,02,20.90
2021,06,29,11,03,20.90
2021,06,29,11,04,20.90
2021,06,29,11,05,21.00
2021,06,29,11,06,21.00
2021,06,29,11,07,21.00
2021,06,29,11,08,20.90
2021,06,29,11,09,21.00
2021,06,29,11,10,20.90
2021,06,29,11,11,20.90
2021,06,29,11,12,21.00
2021,06,29,11,13,21.10
2021,06,29,11,14,21.10
2021,06,29,11,15,21.10
2021,06,29,11,16,21.20
2021,06,29,11,17,21.20
2021,06,29,11,18,21.30
2021,06,29,11,19,21.30
2021,06,29,11,20,21.40
2021,06,29,11,21,21.50
2021,06,29,11,22,21.50
2021,06,29,11,23,21.60
2021,06,29,11,24,21.60
2021,06,29,11,25,21.60
2021,06,29,11,26,21.70
2021,06,29,11,27,21.70
2021,06,29,11,28,21.70
2021,06,29,11,29,21.70
2021,06,29,11,30,21.70
2021,06,29,11,31,21.70
2021,06,29,11,32,21.70
2021,06,29,11,33,21.70
2021,06,29,11,34,21.70
2021,06,29,11,35,21.80
2021,06,29,11,36,21.90
2021,06,29,11,37,21.90
2021,06,29,11,38,22.00
2021,06,29,11,39,22.10
2021,06,29,11,40,22.20
2021,06,29,11,41,22.30
2021,06,29,11,42,22.30
2021,06,29,11,43,22.30
2021,06,29,11,44,22.30
2021,06,29,11,45,22.20
2021,06,29,11,46,22.20
2021,06,29,11,47,22.10
2021,06,29,11,48,22.10
2021,06,29,11,49,22.10
2021,06,29,11,50,22.10
2021,06,29,11,51,22.20
2021,06,29,11,52,22.20
2021,06,29,11,53,22.30
2021,06,29,11,54,22.30
2021,06,29,11,55,22.40
2021,06,29,11,56,22.40
2021,06,29,11,57,22.40
2021,06,29,11,58,22.40
2021,06,29,11,59,22.40
2021,06,29,12,00,22.50
2021,06,29,12,01,22.60
2021,06,29,12,02,22.70
2021,06,29,12,03,22.80
2021,06,29,12,04,22.90
2021,06,29,12,05,23.00
2021,06,29,12,06,23.10
2021,06,29,12,07,23.20
2021,06,29,12,08,23.30
2021,06,29,12,09,23.40
2021,06,29,12,10,23.50
2021,06,29,12,11,23.50
2021,06,29,12,12,23.60
2021,06,29,12,13,23.70
2021,06,29,12,14,23.70
2021,06,29,12,15,23.70
2021,06,29,12,16,23.70
2021,06,29,12,17,23.70
2021,06,29,12,18,23.70
2021,06,29,12,19,23.70
2021,06,29,12,20,23.70
2021,06,29,12,21,23.80
2021,06,29,12,22,23.80
2021,06,29,12,23,23.90
2021,06,29,12,24,24.00
2021,06,29,12,25,24.10
2021,06,29,12,26,24.20
2021,06,29,12,27,24.30
2021,06,29,12,28,24.50
2021,06,29,12,29,24.60
2021,06,29,12,30,24.80
2021,06,29,12,31,24.90
2021,06,29,12,32,25.00
2021,06,29,12,33,25.20
2021,06,29,12,34,25.30
2021,06,29,12,35,25.30
2021,06,29,12,36,25.30
2021,06,29,12,37,25.20
2021,06,29,12,38,25.20
2021,06,29,12,39,25.10
2021,06,29,12,40,25.10
2021,06,29,12,41,25.10
2021,06,29,12,42,25.20
2021,06,29,12,43,25.20
2021,06,29,12,44,25.30
2021,06,29,12,45,25.30
2021,06,29,12,46,25.40
2021,06,29,12,47,25.50
2021,06,29,12,48,25.60
2021,06,29,12,49,25.80
2021,06,29,12,50,25.90
2021,06,29,12,51,26.00
2021,06,29,12,52,26.10
2021,06,29,12,53,26.20
2021,06,29,12,54,26.30
2021,06,29,12,55,26.40
2021,06,29,12,56,26.50
2021,06,29,12,57,26.60
2021,06,29,12,58,26.70
2021,06,29,12,59,26.80
2021,06,29,13,00,26.90
2021,06,29,13,01,26.90
2021,06,29,13,02,26.90
2021,06,29,13,03,26.90
2021,06,29,13,04,26.70
2021,06,29,13,05,26.60
2021,06,29,13,06,26.40
2021,06,29,13,07,26.20
2021,06,29,13,08,26.00
2021,06,29,13,09,25.80
2021,06,29,13,10,25.70
2021,06,29,13,11,25.50
2021,06,29,13,12,25.40
2021,06,29,13,13,25.40
2021,06,29,13,14,25.40
2021,06,29,13,15,25.30
2021,06,29,13,16,25.40
2021,06,29,13,17,25.40
2021,06,29,13,18,25.40
2021,06,29,13,19,25.40
2021,06,29,13,20,25.40
2021,06,29,13,21,25.30
2021,06,29,13,22,25.30
2021,06,29,13,23,25.20
2021,06,29,13,24,25.20
2021,06,29,13,25,25.20
2021,06,29,13,26,25.10
2021,06,29,13,27,25.10
2021,06,29,13,28,25.10
2021,06,29,13,29,25.10
2021,06,29,13,30,25.10
2021,06,29,13,31,25.00
2021,06,29,13,32,24.90
2021,06,29,13,33,24.80
2021,06,29,13,34,24.60
2021,06,29,13,35,24.30
2021,06,29,13,36,24.20
2021,06,29,13,37,23.90
2021,06,29,13,38,23.80
2021,06,29,13,39,23.70
2021,06,29,13,40,23.60
2021,06,29,13,41,23.50
2021,06,29,13,42,23.30
2021,06,29,13,43,23.20
2021,06,29,13,44,23.00
2021,06,29,13,45,22.90
2021,06,29,13,46,22.90
2021,06,29,13,47,22.80
2021,06,29,13,48,22.80
2021,06,29,13,49,22.80
2021,06,29,13,50,22.90
2021,06,29,13,51,22.90
2021,06,29,13,52,23.00
2021,06,29,13,53,23.00
2021,06,29,13,54,23.10
2021,06,29,13,55,23.10
2021,06,29,13,56,23.10
2021,06,29,13,57,23.10
2021,06,29,13,58,23.10
2021,06,29,13,59,23.00
2021,06,29,14,00,22.90
2021,06,29,14,01,22.80
2021,06,29,14,02,22.80
2021,06,29,14,03,22.70
2021,06,29,14,04,22.60
2021,06,29,14,05,22.50
2021,06,29,14,06,22.40
2021,06,29,14,07,22.40
2021,06,29,14,08,22.50
2021,06,29,14,09,22.50
2021,06,29,14,10,22.60
2021,06,29,14,11,22.70
2021,06,29,14,12,22.80
2021,06,29,14,13,22.90
2021,06,29,14,14,23.00
2021,06,29,14,15,23.10
2021,06,29,14,16,23.10
2021,06,29,14,17,23.20
2021,06,29,14,18,23.20
2021,06,29,14,19,23.20
2021,06,29,14,20,23.20
2021,06,29,14,21,23.20
2021,06,29,14,22,23.30
2021,06,29,14,23,23.30
2021,06,29,14,24,23.40
2021,06,29,14,25,23.40
2021,06,29,14,26,23.50
2021,06,29,14,27,23.50
2021,06,29,14,28,23.60
2021,06,29,14,29,23.60
2021,06,29,14,30,23.70
2021,06,29,14,31,23.70
2021,06,29,14,32,23.80
2021,06,29,14,33,24.00
2021,06,29,14,34,24.20
2021,06,29,14,35,24.50
2021,06,29,14,36,24.70
2021,06,29,14,37,25.00
2021,06,29,14,38,25.20
2021,06,29,14,39,25.70
2021,06,29,14,40,26.10
2021,06,29,14,41,26.60
2021,06,29,14,42,27.10
2021,06,29,14,43,27.40
2021,06,29,14,44,27.80
2021,06,29,14,45,28.20
2021,06,29,14,46,28.50
2021,06,29,14,47,28.80
2021,06,29,14,48,29.00
2021,06,29,14,49,29.20
2021,06,29,14,50,29.30
2021,06,29,14,51,29.40
2021,06,29,14,52,29.60
2021,06,29,14,53,29.70
2021,06,29,14,54,29.80
2021,06,29,14,55,29.80
2021,06,29,14,56,30.00
2021,06,29,14,57,30.10
2021,06,29,14,58,30.20
2021,06,29,14,59,30.30
2021,06,29,15,00,30.30
2021,06,29,15,01,30.30
2021,06,29,15,02,30.40
2021,06,29,15,03,30.40
2021,06,29,15,04,30.50
2021,06,29,15,05,30.50
2021,06,29,15,06,30.60
2021,06,29,15,07,30.60
2021,06,29,15,08,30.60
2021,06,29,15,09,30.50
2021,06,29,15,10,30.50
2021,06,29,15,11,30.50
2021,06,29,15,12,30.60
2021,06,29,15,13,30.70
2021,06,29,15,14,30.70
2021,06,29,15,15,30.70
2021,06,29,15,16,30.70
2021,06,29,15,17,30.60
2021,06,29,15,18,30.60
2021,06,29,15,19,30.60
2021,06,29,15,20,30.70
2021,06,29,15,21,30.80
2021,06,29,15,22,30.80
2021,06,29,15,23,30.80
2021,06,29,15,24,30.80
2021,06,29,15,25,30.80
2021,06,29,15,26,30.80
2021,06,29,15,27,30.80
2021,06,29,15,28,30.80
2021,06,29,15,29,30.80
2021,06,29,15,30,30.70
2021,06,29,15,31,30.80
2021,06,29,15,32,30.80
2021,06,29,15,33,30.80
2021,06,29,15,34,30.80
2021,06,29,15,35,30.80
2021,06,29,15,36,30.70
2021,06,29,15,37,30.70
2021,06,29,15,38,30.70
2021,06,29,15,39,30.70
2021,06,29,15,40,30.70
2021,06,29,15,41,30.70
2021,06,29,15,42,30.70
2021,06,29,15,43,30.70
2021,06,29,15,44,30.60
2021,06,29,15,45,30.50
2021,06,29,15,46,30.40
2021,06,29,15,47,30.40
2021,06,29,15,48,30.30
2021,06,29,15,49,30.30
2021,06,29,15,50,30.20
2021,06,29,15,51,30.20
2021,06,29,15,52,30.20
2021,06,29,15,53,30.20
2021,06,29,15,54,30.30
2021,06,29,15,55,30.40
2021,06,29,15,56,30.50
2021,06,29,15,57,30.70
2021,06,29,15,58,30.80
2021,06,29,15,59,30.90
2021,06,29,16,00,31.00
2021,06,29,16,01,31.00
2021,06,29,16,02,31.10
2021,06,29,16,03,31.00
2021,06,29,16,04,31.00
2021,06,29,16,05,31.00
2021,06,29,16,06,31.00
2021,06,29,16,07,30.90
2021,06,29,16,08,30.90
2021,06,29,16,09,30.80
2021,06,29,16,10,30.80
2021,06,29,16,11,30.80
2021,06,29,16,12,30.80
2021,06,29,16,13,30.70
2021,06,29,16,14,30.60
2021,06,29,16,15,30.60
2021,06,29,16,16,30.60
2021,06,29,16,17,30.50
2021,06,29,16,18,30.50
2021,06,29,16,19,30.50
2021,06,29,16,20,30.60
2021,06,29,16,21,30.60
2021,06,29,16,22,30.60
2021,06,29,16,23,30.60
2021,06,29,16,24,30.50
2021,06,29,16,25,30.40
2021,06,29,16,26,30.40
2021,06,29,16,27,30.40
2021,06,29,16,28,30.30
2021,06,29,16,29,30.30
2021,06,29,16,30,30.30
2021,06,29,16,31,30.20
2021,06,29,16,32,30.20
2021,06,29,16,33,30.10
2021,06,29,16,34,30.10
2021,06,29,16,35,30.20
2021,06,29,16,36,30.20
2021,06,29,16,37,30.30
2021,06,29,16,38,30.30
2021,06,29,16,39,30.30
2021,06,29,16,40,30.40
2021,06,29,16,41,30.40
2021,06,29,16,42,30.40
2021,06,29,16,43,30.30
2021,06,29,16,44,30.30
2021,06,29,16,45,30.30
2021,06,29,16,46,30.30
2021,06,29,16,47,30.30
2021,06,29,16,48,30.40
2021,06,29,16,49,30.40
2021,06,29,16,50,30.40
2021,06,29,16,51,30.40
2021,06,29,16,52,30.40
2021,06,29,16,53,30.40
2021,06,29,16,54,30.40
2021,06,29,16,55,30.40
2021,06,29,16,56,30.40
2021,06,29,16,57,30.40
2021,06,29,16,58,30.40
2021,06,29,16,59,30.40
2021,06,29,17,00,30.30
2021,06,29,17,01,30.30
2021,06,29,17,02,30.20
2021,06,29,17,03,30.20
2021,06,29,17,04,30.20
2021,06,29,17,05,30.30
2021,06,29,17,06,30.20
2021,06,29,17,07,30.10
2021,06,29,17,08,30.10
2021,06,29,17,09,30.10
2021,06,29,17,10,30.10
2021,06,29,17,11,30.10
2021,06,29,17,12,30.10
2021,06,29,17,13,30.00
2021,06,29,17,14,30.00
2021,06,29,17,15,29.90
2021,06,29,17,16,29.90
2021,06,29,17,17,29.90
2021,06,29,17,18,29.90
2021,06,29,17,19,30.00